Greenville, SC

8:00 AM EDT on September 28, 2016 (GMT -0400)
Greenville Downtown

Weather History for KGMU - November, 2011

Change the Weather History Date:

Wednesday, November 9, 2011

  Actual Average Record
Temperature  
Mean Temperature 54 °F -  
Max Temperature 66 °F 61 °F 80 °F (2005)
Min Temperature 43 °F 43 °F 33 °F (1996)
Degree Days  
Heating Degree Days 10    
Growing Degree Days 4 (Base 50)    
Moisture  
Dew Point 49 °F    
Average Humidity 74    
Maximum Humidity 93    
Minimum Humidity 57    
Precipitation  
Precipitation 0.00 in - - ()
Sea Level Pressure  
Sea Level Pressure 30.09 in    
Wind  
Wind Speed 3 mph (West)    
Max Wind Speed 8 mph    
Max Gust Speed -    
Visibility 10 miles    
Events      
Averages and records for this station are not official NWS values.
T = Trace of Precipitation, MM = Missing Value Source: NWS Daily Summary

Daily Weather History Graph

Daily Weather History Graph

Search for Another Location

Airport or City:

Trip Planner

Search our weather history database for the weather conditions in past years. The results will help you decide how hot, cold, wet, or windy it might be!

Date:

Astronomy

Nov. 09, 2011 Rise Set
Actual Time 6:57 AM EST 5:28 PM EST
Civil Twilight 6:30 AM EST 5:55 PM EST
Nautical Twilight 6:00 AM EST 6:25 PM EST
Astronomical Twilight 5:30 AM EST 6:54 PM EST
Moon 4:40 PM EST (11/9) 5:52 AM EST (11/9)
Length of Visible Light 11h 24m
Length of Day
10h 31m
Waxing Gibbous, 99% of the Moon is Illuminated
Nov 9
Waxing Gibbous
Nov 10
Full
Nov 18
Last Quarter
Nov 25
New
Dec 2
First Quarter

Hourly Weather History & Observations

Time (EST) Temp. Windchill Dew Point Humidity Pressure Visibility Wind Dir Wind Speed Gust Speed Precip Events Conditions
12:53 AM 53.1 °F - 46.0 °F 77% 30.17 in 10.0 mi North 3.5 mph - N/A   Clear
1:53 AM 53.1 °F - 46.0 °F 77% 30.17 in 10.0 mi North 3.5 mph - N/A   Clear
2:53 AM 46.0 °F 44.8 °F 44.1 °F 93% 30.16 in 10.0 mi North 3.5 mph - N/A   Clear
3:53 AM 46.0 °F - 43.0 °F 89% 30.16 in 10.0 mi Calm Calm - N/A   Clear
4:53 AM 46.0 °F - 43.0 °F 89% 30.16 in 10.0 mi Calm Calm - N/A   Clear
5:53 AM 43.0 °F - 41.0 °F 93% 30.17 in 10.0 mi Calm Calm - N/A   Clear
6:53 AM 46.9 °F - 43.0 °F 86% 30.16 in 10.0 mi Calm Calm - N/A   Clear
7:53 AM 51.1 °F - 48.0 °F 89% 30.18 in 10.0 mi Calm Calm - N/A   Clear
9:53 AM 60.1 °F - 48.9 °F 67% 30.17 in 10.0 mi Calm Calm - N/A   Mostly Cloudy
10:53 AM 63.0 °F - 51.1 °F 65% 30.16 in 10.0 mi SW 4.6 mph - N/A   Partly Cloudy
11:53 AM 64.9 °F - 51.1 °F 61% 30.12 in 10.0 mi West 4.6 mph - N/A   Scattered Clouds
12:03 PM 64.4 °F - 51.8 °F 64% 30.12 in 10.0 mi Variable 5.8 mph - N/A   Mostly Cloudy
12:34 PM 66.2 °F - 51.8 °F 60% 30.10 in 10.0 mi South 4.6 mph - N/A   Overcast
12:53 PM 64.9 °F - 51.1 °F 61% 30.09 in 10.0 mi WSW 3.5 mph - N/A   Overcast
1:53 PM 66.9 °F - 51.1 °F 57% 30.07 in 10.0 mi SW 6.9 mph - N/A   Mostly Cloudy
2:53 PM 66.0 °F - 51.1 °F 59% 30.06 in 10.0 mi West 8.1 mph - N/A   Partly Cloudy
3:53 PM 64.9 °F - 51.1 °F 61% 30.03 in 10.0 mi West 6.9 mph - N/A   Clear
4:53 PM 64.0 °F - 51.1 °F 63% 30.03 in 10.0 mi SW 4.6 mph - N/A   Clear
5:53 PM 62.1 °F - 52.0 °F 70% 30.02 in 10.0 mi SW 4.6 mph - N/A   Clear
6:53 PM 61.0 °F - 52.0 °F 72% 30.01 in 10.0 mi Calm Calm - N/A   Clear
7:53 PM 60.1 °F - 52.0 °F 75% 30.02 in 10.0 mi Calm Calm - N/A   Clear
8:53 PM 59.0 °F - 52.0 °F 78% 30.01 in 10.0 mi Calm Calm - N/A   Mostly Cloudy
9:53 PM 59.0 °F - 53.1 °F 81% 30.01 in 10.0 mi Calm Calm - N/A   Overcast
10:53 PM 57.9 °F - 54.0 °F 87% 30.00 in 10.0 mi West 5.8 mph - N/A   Overcast
11:53 PM 57.9 °F - 54.0 °F 87% 29.98 in 10.0 mi Calm Calm - N/A   Overcast